Wind_Speed
27 26 25 24 24 24 24 24 24 25 25 26 26 27 28 28 29 30 31 31 32 32 33 33 33 34 34 34 34 34 35 36 36 36 37 37 38 40 41 42 43 44 45
27 26 25 25 25 25 24 24 25 25 26 26 27 28 28 29 30 31 32 32 33 33 34 34 34 34 34 35 35 36 37 38 39 40 40 39 39 41 42 43 45 46 47
27 26 25 25 25 24 24 25 25 26 26 27 28 29 29 30 31 32 33 33 34 34 35 35 36 36 37 37 38 39 40 40 42 43 43 43 42 42 43 45 47 49 50
28 26 25 25 25 25 25 25 26 26 27 27 29 29 30 31 33 34 34 35 35 36 37 37 38 38 39 40 41 42 43 43 44 45 47 48 48 48 46 46 48 50 52
27 26 25 25 25 25 26 26 27 27 28 29 30 31 32 33 34 35 36 37 37 38 39 39 40 41 42 42 43 44 45 46 46 47 49 50 52 54 54 52 52 53 55
26 26 25 26 26 26 27 27 28 29 30 30 31 32 33 35 36 37 38 39 40 40 41 42 42 43 44 44 45 46 47 48 49 50 52 53 55 57 59 60 59 59 59
27 26 26 26 27 27 28 29 29 30 31 32 33 34 35 37 38 39 40 40 41 42 43 43 44 44 45 46 47 48 49 50 52 53 54 56 58 60 62 64 65 65 65
27 26 26 27 27 28 29 30 30 31 32 34 35 36 38 39 40 41 42 42 43 44 44 45 45 46 46 48 49 50 52 53 54 55 57 58 60 63 65 68 70 70 69
26 26 26 27 28 29 30 30 31 33 34 36 37 38 40 41 42 43 44 45 45 45 45 46 47 48 49 50 51 52 53 55 56 57 59 61 63 65 67 70 72 75 75
26 26 27 28 29 30 31 32 33 35 37 38 40 41 42 43 44 45 46 46 47 47 47 48 49 50 51 52 53 54 55 56 58 60 62 63 66 68 70 72 74 76 79
26 27 28 29 30 31 33 34 36 37 39 40 42 43 44 45 46 47 47 47 48 49 49 50 50 51 52 54 55 56 57 59 61 62 64 66 68 70 72 74 75 77 78
27 28 29 30 32 33 35 36 38 39 41 42 44 45 46 47 47 48 48 49 49 50 50 51 52 53 54 55 57 58 59 61 63 64 66 68 70 72 74 75 76 77 79
28 29 30 32 33 35 36 38 39 41 43 44 46 47 47 48 49 49 50 50 50 51 52 53 54 55 56 57 59 60 62 63 65 67 69 70 72 74 75 76 77 79 81
31 32 32 33 35 37 38 40 42 43 45 46 47 48 49 49 50 50 50 51 52 52 53 54 56 57 58 59 61 62 64 65 67 69 71 72 74 75 76 77 79 81 82
33 34 34 35 37 39 40 42 44 45 46 47 48 49 49 50 50 51 51 52 53 54 55 56 57 59 60 62 63 65 66 67 69 70 72 74 75 77 78 80 81 82 83
35 36 37 38 39 40 42 44 45 46 47 48 49 49 50 51 51 52 53 54 55 56 57 58 59 61 62 64 65 67 68 70 71 73 74 76 77 79 81 82 83 83 82
37 37 38 40 41 43 44 45 46 47 48 48 49 50 51 51 52 53 54 55 56 57 58 60 61 62 64 66 67 69 71 72 74 76 77 78 80 82 82 82 81 80 78
38 39 41 42 43 44 45 46 46 47 48 49 50 50 51 52 53 54 55 56 57 58 60 61 62 64 66 68 70 72 73 75 77 79 80 82 82 82 82 80 78 74 70
39 41 42 43 44 45 45 46 47 47 48 49 50 51 52 53 54 55 56 57 58 59 61 62 64 66 68 71 73 75 77 78 80 81 83 83 82 81 79 76 72 66 62
40 41 42 43 44 45 45 46 47 47 48 49 50 51 52 53 55 56 57 58 60 61 63 64 67 69 71 74 77 80 81 82 83 83 82 82 79 76 72 68 63 58 54
41 42 43 44 44 45 45 46 47 48 48 49 50 51 53 54 56 57 58 60 62 63 65 67 69 72 76 79 81 84 85 85 84 82 80 76 73 68 64 60 56 52 49
41 42 43 44 44 45 45 46 47 48 49 50 51 52 54 56 57 58 60 62 64 66 68 71 73 76 80 83 84 86 86 85 83 79 74 70 65 60 56 53 50 48 45
41 42 43 43 44 45 45 46 48 49 50 51 52 54 55 57 58 60 62 64 67 70 72 75 78 80 83 85 86 86 84 82 78 73 68 62 57 53 50 48 46 44 42
41 41 42 43 43 45 46 47 49 50 51 52 53 55 56 58 60 62 65 68 71 74 78 81 83 84 85 86 85 83 80 76 71 66 61 55 51 48 46 43 42 41 40
41 42 42 43 44 45 47 49 50 51 52 53 55 56 58 60 62 65 68 72 75 80 83 85 87 88 87 85 83 80 75 70 65 59 53 49 45 43 41 40 39 38 37
41 42 43 44 45 47 48 50 51 52 53 54 56 58 60 63 66 69 72 76 80 83 86 87 88 88 86 83 78 74 69 63 57 53 47 43 41 39 38 37 36 35 35
Wind_Direction
267 268 268 269 269 270 271 273 275 277 278 278 279 281 283 284 285 286 286 286 287 287 286 286 286 285 285 284 283 281 281 280 279 278 277 277 277 277 278 277 277 277 277
263 265 265 266 267 268 269 271 273 275 276 277 279 281 283 285 285 286 286 287 287 288 287 287 286 285 285 284 283 282 282 282 281 280 279 277 277 278 279 279 279 279 279
261 262 263 264 265 266 268 270 273 274 275 276 278 281 284 285 286 286 287 287 288 288 288 287 286 285 285 284 284 284 283 283 283 283 282 280 277 276 277 278 279 279 280
259 259 261 262 263 265 267 269 272 274 275 277 279 282 284 286 287 287 287 288 288 288 288 287 286 286 286 285 285 284 284 284 284 284 284 284 283 281 278 277 278 279 279
258 258 259 260 261 264 266 269 272 274 276 278 280 283 285 287 288 288 288 288 289 289 289 288 287 287 286 286 285 285 285 285 285 285 285 285 286 285 284 281 280 280 281
256 257 259 259 261 264 266 269 272 274 277 279 282 285 287 288 289 289 288 288 289 289 289 288 287 287 286 286 286 286 286 286 286 286 286 286 287 286 286 285 284 283 282
256 257 258 260 262 264 267 269 272 275 277 280 283 285 288 289 290 290 289 289 290 290 289 289 288 287 287 287 287 287 287 287 288 288 288 288 289 288 288 287 287 286 285
255 257 259 260 262 265 268 270 273 276 279 282 284 286 288 290 291 291 290 290 290 290 290 289 289 288 288 288 288 288 289 289 289 289 290 290 290 290 290 290 289 288 287
257 258 260 261 263 266 269 272 275 278 281 283 286 287 289 290 291 291 291 291 291 290 290 289 289 289 289 289 289 289 289 290 290 290 291 291 291 292 292 292 292 291 290
258 260 262 263 265 268 271 274 277 279 282 285 287 288 289 290 291 291 291 291 291 290 290 290 289 290 290 290 290 291 291 291 291 292 292 292 293 293 293 293 293 293 292
260 262 265 266 268 271 274 276 279 282 284 286 288 289 290 290 291 291 291 291 291 291 290 290 290 290 291 291 291 292 292 292 293 293 293 294 294 294 294 294 294 294 294
263 265 266 268 271 273 276 279 282 284 286 287 289 290 290 291 291 291 291 292 292 291 291 291 291 291 292 292 292 292 293 294 294 295 295 296 296 296 296 296 296 295 295
265 267 268 271 273 276 278 281 283 285 287 288 289 290 290 291 291 292 292 292 292 291 291 292 292 292 293 293 293 294 295 296 296 297 297 298 298 298 297 297 297 297 297
267 269 271 273 275 277 280 282 284 286 287 289 290 290 291 291 292 292 292 292 292 292 293 293 293 294 294 294 295 296 297 298 299 300 300 300 299 299 299 298 298 298 298
270 272 273 275 278 280 282 283 285 287 288 289 290 291 291 292 292 292 293 293 293 294 294 294 295 296 296 297 298 298 299 300 301 301 301 301 301 300 300 299 299 298 298
272 274 276 278 280 282 283 285 286 288 289 290 290 291 291 292 292 293 293 294 294 295 295 296 297 297 298 299 300 301 301 302 302 302 302 302 302 301 301 301 300 300 298
274 276 279 281 283 284 286 287 288 288 289 290 290 291 291 292 292 293 294 295 295 296 296 297 298 299 300 301 302 302 303 304 304 303 303 303 302 302 301 301 300 299 298
277 280 282 283 285 286 287 288 289 289 289 290 291 291 291 292 293 294 295 296 296 297 298 299 299 300 301 302 303 304 304 305 305 304 304 303 303 302 301 300 299 298 296
279 281 283 284 286 287 288 289 289 290 290 291 291 292 292 293 294 295 296 297 297 298 299 300 301 302 303 304 304 305 305 305 305 305 305 304 303 302 300 299 298 296 295
280 282 283 285 286 287 288 289 290 290 291 292 292 293 293 294 295 296 297 298 299 299 300 301 303 303 304 305 305 305 305 305 305 305 305 304 302 301 299 298 297 296 293
281 282 284 285 286 287 288 290 291 291 292 293 293 294 295 296 296 297 298 299 300 301 302 303 304 305 306 306 306 306 306 306 306 305 304 303 301 300 298 297 296 295 293
283 284 285 286 287 289 290 291 291 293 293 294 294 295 296 296 297 298 300 300 301 302 303 304 305 306 306 306 306 306 306 306 306 305 304 302 300 298 296 295 294 293 292
285 286 287 288 289 290 291 292 292 294 295 295 295 296 297 298 299 300 301 302 302 303 304 305 305 306 306 306 306 306 306 306 305 304 303 301 298 297 295 294 293 292 292
287 289 289 290 290 291 292 292 293 294 295 296 296 297 298 299 300 301 302 303 304 304 305 306 306 307 307 307 306 306 306 305 304 302 301 299 296 295 294 292 292 291 291
289 290 290 291 291 292 293 294 294 295 296 297 298 298 299 300 301 302 303 304 305 306 307 307 308 308 308 307 307 306 305 304 302 300 299 296 294 293 292 291 291 291 291
290 290 291 292 293 293 294 294 295 296 297 298 299 300 301 301 302 303 304 305 307 308 308 308 308 308 308 308 307 306 305 303 301 299 298 295 293 292 291 291 291 291 291
Height
5818 5817 5816 5816 5815 5814 5814 5813 5812 5811 5810 5809 5808 5806 5804 5803 5801 5799 5797 5794 5792 5789 5787 5785 5782 5780 5777 5775 5773 5771 5768 5766 5764 5763 5762 5760 5757 5755 5752 5750 5748 5745 5743
5811 5810 5810 5809 5809 5808 5808 5807 5806 5805 5804 5803 5801 5800 5798 5796 5794 5792 5789 5787 5784 5782 5779 5776 5774 5772 5769 5766 5764 5762 5760 5757 5754 5752 5751 5751 5750 5745 5743 5739 5736 5734 5731
5805 5804 5803 5803 5802 5802 5801 5801 5800 5799 5798 5796 5795 5793 5791 5789 5787 5784 5782 5779 5777 5774 5771 5768 5765 5763 5760 5758 5755 5752 5750 5748 5744 5741 5739 5738 5738 5736 5735 5730 5726 5722 5719
5798 5797 5797 5796 5796 5796 5795 5794 5794 5792 5791 5790 5788 5786 5784 5782 5779 5777 5774 5771 5768 5765 5762 5759 5756 5754 5751 5748 5745 5742 5739 5737 5734 5731 5727 5724 5722 5720 5721 5720 5716 5711 5707
5791 5790 5790 5790 5789 5789 5788 5788 5787 5786 5784 5783 5781 5779 5776 5774 5771 5769 5766 5763 5759 5756 5753 5750 5747 5744 5741 5738 5735 5732 5728 5725 5722 5719 5716 5712 5708 5704 5702 5703 5703 5699 5694
5784 5783 5783 5783 5783 5782 5781 5780 5780 5778 5777 5775 5773 5771 5768 5766 5763 5760 5757 5754 5750 5747 5744 5740 5737 5734 5731 5727 5724 5721 5717 5714 5710 5706 5703 5699 5695 5691 5686 5684 5683 5681 5679
5777 5776 5777 5776 5776 5775 5774 5773 5772 5770 5769 5767 5765 5762 5760 5757 5754 5751 5748 5744 5741 5737 5734 5730 5727 5723 5720 5716 5713 5709 5705 5701 5698 5694 5689 5685 5680 5675 5671 5667 5664 5662 5660
5769 5769 5769 5769 5768 5768 5767 5765 5764 5762 5761 5758 5756 5754 5751 5748 5744 5741 5738 5734 5730 5727 5723 5720 5716 5712 5708 5705 5701 5697 5693 5689 5684 5680 5675 5671 5665 5660 5654 5649 5644 5641 5640
5762 5762 5762 5762 5761 5760 5759 5757 5756 5754 5752 5750 5747 5744 5741 5738 5734 5731 5727 5724 5720 5716 5712 5708 5705 5701 5697 5693 5689 5684 5680 5675 5671 5666 5660 5655 5650 5644 5637 5631 5624 5618 5615
5755 5755 5755 5754 5753 5752 5751 5749 5747 5745 5743 5740 5737 5734 5731 5727 5724 5720 5716 5712 5709 5705 5701 5697 5693 5688 5684 5680 5676 5671 5666 5661 5656 5651 5645 5640 5633 5627 5620 5613 5606 5598 5592
5748 5747 5747 5746 5745 5744 5742 5741 5738 5736 5733 5730 5727 5724 5720 5717 5713 5709 5705 5701 5697 5693 5689 5685 5680 5676 5671 5667 5662 5657 5652 5647 5641 5635 5629 5623 5616 5610 5602 5595 5587 5580 5571
5740 5740 5739 5738 5737 5735 5733 5731 5729 5726 5723 5720 5716 5713 5709 5705 5701 5697 5693 5689 5685 5680 5676 5672 5667 5663 5658 5653 5648 5643 5637 5631 5625 5619 5612 5605 5598 5591 5583 5575 5567 5559 5550
5732 5731 5730 5729 5728 5726 5724 5722 5719 5716 5712 5709 5705 5701 5698 5694 5689 5685 5681 5676 5672 5668 5663 5658 5654 5649 5644 5638 5633 5627 5622 5615 5609 5602 5594 5587 5579 5571 5563 5555 5546 5538 5529
5723 5722 5721 5720 5718 5716 5714 5711 5708 5705 5701 5698 5694 5690 5686 5682 5677 5673 5668 5664 5659 5654 5650 5644 5639 5634 5629 5623 5617 5611 5605 5598 5591 5583 5575 5567 5559 5551 5542 5534 5525 5516 5508
5714 5713 5712 5710 5708 5706 5703 5700 5697 5694 5690 5686 5682 5678 5674 5669 5665 5660 5655 5651 5646 5641 5635 5630 5625 5619 5613 5607 5601 5595 5588 5581 5574 5566 5557 5548 5539 5530 5521 5512 5503 5494 5485
5704 5703 5702 5700 5698 5695 5692 5689 5686 5682 5678 5674 5670 5666 5661 5657 5652 5647 5642 5637 5632 5627 5621 5615 5610 5603 5597 5590 5584 5577 5570 5563 5555 5546 5537 5528 5518 5509 5499 5489 5479 5470 5460
5694 5693 5691 5689 5687 5684 5681 5678 5674 5670 5666 5662 5658 5653 5649 5644 5639 5634 5629 5624 5618 5613 5607 5601 5594 5588 5581 5573 5566 5559 5552 5544 5535 5526 5517 5507 5497 5486 5477 5467 5458 5448 5437
5684 5682 5680 5678 5675 5672 5669 5666 5662 5658 5654 5650 5645 5641 5636 5631 5626 5621 5615 5610 5604 5598 5592 5586 5579 5572 5564 5556 5549 5541 5533 5525 5515 5505 5495 5485 5475 5463 5453 5445 5437 5428 5419
5674 5672 5669 5667 5664 5661 5657 5654 5650 5646 5642 5637 5633 5628 5623 5618 5613 5608 5602 5596 5590 5584 5577 5570 5563 5555 5548 5538 5530 5521 5513 5505 5495 5484 5473 5461 5452 5442 5430 5422 5415 5409 5402
5663 5661 5658 5655 5652 5649 5646 5642 5638 5634 5629 5625 5620 5615 5610 5605 5599 5594 5588 5581 5575 5568 5562 5554 5546 5538 5529 5520 5510 5500 5492 5484 5475 5464 5452 5439 5428 5419 5408 5400 5394 5390 5384
5652 5649 5647 5644 5641 5637 5634 5630 5626 5621 5617 5612 5607 5602 5596 5591 5585 5579 5573 5566 5560 5553 5546 5539 5530 5520 5510 5500 5490 5478 5468 5459 5451 5441 5430 5419 5408 5398 5390 5383 5377 5372 5368
5641 5638 5635 5632 5629 5625 5622 5618 5613 5609 5604 5599 5594 5589 5583 5577 5570 5564 5558 5550 5543 5536 5528 5520 5512 5502 5491 5479 5468 5457 5446 5434 5425 5417 5408 5398 5389 5381 5374 5368 5363 5358 5354
5629 5627 5623 5620 5617 5613 5609 5605 5600 5596 5591 5586 5580 5575 5569 5562 5556 5549 5542 5534 5526 5518 5510 5501 5493 5484 5473 5459 5446 5435 5424 5412 5402 5394 5386 5379 5371 5365 5360 5354 5349 5345 5341
5618 5615 5611 5608 5604 5601 5596 5592 5587 5583 5578 5573 5567 5561 5555 5548 5541 5533 5525 5517 5508 5499 5490 5480 5470 5462 5452 5438 5426 5414 5403 5393 5383 5375 5368 5362 5355 5350 5346 5341 5337 5333 5329
5606 5603 5600 5596 5592 5588 5584 5579 5574 5569 5564 5559 5553 5546 5540 5533 5526 5518 5509 5499 5490 5477 5467 5457 5446 5436 5428 5417 5403 5391 5382 5373 5365 5358 5353 5347 5342 5338 5333 5329 5326 5322 5318
5594 5591 5588 5584 5580 5575 5571 5565 5560 5556 5550 5545 5538 5531 5524 5517 5509 5501 5493 5482 5470 5459 5445 5431 5419 5410 5400 5391 5381 5371 5361 5353 5346 5341 5337 5333 5329 5325 5321 5318 5315 5311 5308